PAL2531 RPLL-RPMD

Flight info

Callsign PAL2531
Flight time N/A
Altitude 39000
Route IPATA2R IPATA B462 MASBA W9A BN W9 RIMAR RIMAR2R
Aircraft A346/H-SDE2E3FGHIJ3J4J5M1RWXY/LB1D1

Departure

Time 2026-05-01 14:49
Airport Ninoy Aquino International Airport (RPLL)

Arrival

Time N/A
Airport Francisco Bangoy International Airport (RPMD)
Time Latitude Longitude Altitude Speed Heading
2026-05-01 14:28 14.50516 121.00728 93 ft 0 kts 277°
2026-05-01 14:40 14.50515 121.00734 93 ft 2 kts 277°
2026-05-01 14:40 14.50513 121.00749 93 ft 2 kts 277°
2026-05-01 14:41 14.50511 121.00764 93 ft 2 kts 277°
2026-05-01 14:41 14.50509 121.00780 93 ft 2 kts 277°
2026-05-01 14:41 14.50507 121.00795 93 ft 2 kts 277°
2026-05-01 14:41 14.50506 121.00805 93 ft 2 kts 277°
2026-05-01 14:42 14.50504 121.00820 93 ft 2 kts 277°
2026-05-01 14:42 14.50502 121.00835 93 ft 2 kts 278°
2026-05-01 14:42 14.50500 121.00851 93 ft 2 kts 277°
2026-05-01 14:42 14.50499 121.00866 93 ft 2 kts 253°
2026-05-01 14:43 14.50506 121.00880 93 ft 2 kts 238°
2026-05-01 14:43 14.50513 121.00893 93 ft 2 kts 241°
2026-05-01 14:43 14.50520 121.00906 93 ft 2 kts 243°
2026-05-01 14:43 14.50524 121.00914 93 ft 0 kts 243°
2026-05-01 14:45 14.50522 121.00909 93 ft 2 kts 243°
2026-05-01 14:46 14.50506 121.00877 93 ft 7 kts 242°
2026-05-01 14:46 14.50383 121.00789 93 ft 13 kts 226°
2026-05-01 14:46 14.50325 121.00700 93 ft 16 kts 241°
2026-05-01 14:47 14.50265 121.00592 93 ft 18 kts 240°
2026-05-01 14:47 14.50198 121.00472 93 ft 20 kts 240°
2026-05-01 14:47 14.50125 121.00343 93 ft 21 kts 240°
2026-05-01 14:48 14.49962 121.00053 93 ft 23 kts 240°
2026-05-01 14:48 14.49897 120.99975 93 ft 11 kts 193°
2026-05-01 14:48 14.49836 121.00104 93 ft 15 kts 65°
2026-05-01 14:49 14.50358 121.01044 93 ft 148 kts 60°
2026-05-01 14:49 14.51424 121.03040 1345 ft 159 kts 62°
2026-05-01 14:50 14.52166 121.04384 2147 ft 169 kts 60°
2026-05-01 14:50 14.53851 121.07577 3212 ft 213 kts 76°
2026-05-01 14:51 14.53754 121.09157 3578 ft 234 kts 112°
2026-05-01 14:51 14.51878 121.12155 4851 ft 261 kts 127°
2026-05-01 14:52 14.49515 121.15011 6618 ft 267 kts 134°
2026-05-01 14:52 14.48190 121.16383 7497 ft 271 kts 135°
2026-05-01 14:52 14.45516 121.19157 9214 ft 278 kts 134°
2026-05-01 14:53 14.44175 121.20561 10050 ft 282 kts 134°
2026-05-01 14:53 14.42784 121.22025 10760 ft 291 kts 134°
2026-05-01 14:53 14.41346 121.23544 11204 ft 308 kts 134°
2026-05-01 14:53 14.39797 121.25182 11702 ft 322 kts 134°
2026-05-01 14:54 14.38224 121.26847 12429 ft 329 kts 134°
2026-05-01 14:54 14.36610 121.28556 12942 ft 345 kts 134°
2026-05-01 14:54 14.34894 121.30373 13355 ft 363 kts 134°
2026-05-01 14:54 14.33106 121.32265 13896 ft 377 kts 134°
2026-05-01 14:55 14.31267 121.34212 14697 ft 382 kts 134°
2026-05-01 14:55 14.29404 121.36184 15527 ft 385 kts 134°
2026-05-01 14:55 14.27545 121.38151 16293 ft 390 kts 134°
2026-05-01 14:55 14.25630 121.40176 17053 ft 395 kts 134°
2026-05-01 14:56 14.23710 121.42207 17791 ft 399 kts 134°
2026-05-01 14:56 14.21760 121.44268 18514 ft 404 kts 134°
2026-05-01 14:56 14.19801 121.46339 19213 ft 408 kts 134°
2026-05-01 14:56 14.17827 121.48424 19892 ft 413 kts 134°
2026-05-01 14:57 14.15811 121.50555 20564 ft 417 kts 134°
2026-05-01 14:57 14.11750 121.54842 21849 ft 425 kts 134°
2026-05-01 14:57 14.09673 121.57033 22473 ft 430 kts 134°
2026-05-01 14:58 14.07569 121.59254 23083 ft 434 kts 134°
2026-05-01 14:58 14.05394 121.61427 23674 ft 438 kts 138°
2026-05-01 14:58 14.03132 121.63469 24249 ft 442 kts 139°
2026-05-01 14:58 14.00776 121.65543 24825 ft 446 kts 140°
2026-05-01 14:59 13.98404 121.67630 25375 ft 450 kts 140°
2026-05-01 14:59 13.96032 121.69728 25910 ft 454 kts 139°
2026-05-01 14:59 13.93642 121.71851 26435 ft 458 kts 139°
2026-05-01 14:59 13.91242 121.73991 26946 ft 461 kts 139°
2026-05-01 15:00 13.86351 121.78359 27939 ft 469 kts 139°
2026-05-01 15:00 13.83916 121.80537 28412 ft 472 kts 139°
2026-05-01 15:00 13.81421 121.82769 28986 ft 473 kts 139°
2026-05-01 15:01 13.78960 121.84969 29678 ft 471 kts 139°
2026-05-01 15:01 13.76496 121.87174 30363 ft 469 kts 139°
2026-05-01 15:01 13.74042 121.89368 30999 ft 468 kts 139°
2026-05-01 15:01 13.71590 121.91559 31605 ft 467 kts 139°
2026-05-01 15:02 13.69152 121.93737 32192 ft 467 kts 139°
2026-05-01 15:02 13.67532 121.95185 32578 ft 466 kts 139°
2026-05-01 15:02 13.64305 121.98068 33329 ft 465 kts 139°
2026-05-01 15:02 13.61844 122.00265 33886 ft 464 kts 139°
2026-05-01 15:03 13.59424 122.02425 34418 ft 463 kts 139°
2026-05-01 15:03 13.57013 122.04576 34932 ft 463 kts 139°
2026-05-01 15:03 13.54575 122.06751 35431 ft 462 kts 139°
2026-05-01 15:03 13.52158 122.08907 35909 ft 461 kts 139°
2026-05-01 15:04 13.49771 122.11034 36356 ft 460 kts 139°
2026-05-01 15:04 13.47340 122.13202 36771 ft 460 kts 139°
2026-05-01 15:04 13.44938 122.15342 37142 ft 460 kts 139°
2026-05-01 15:04 13.42539 122.17480 37473 ft 461 kts 139°
2026-05-01 15:05 13.40108 122.19644 37758 ft 463 kts 139°
2026-05-01 15:05 13.37665 122.21819 38018 ft 464 kts 139°
2026-05-01 15:05 13.35226 122.23991 38269 ft 466 kts 139°
2026-05-01 15:05 13.32783 122.26163 38510 ft 468 kts 139°
2026-05-01 15:06 13.30343 122.28335 38738 ft 469 kts 139°
2026-05-01 15:06 13.27871 122.30533 38949 ft 470 kts 139°
2026-05-01 15:06 13.25409 122.32722 39008 ft 472 kts 139°
2026-05-01 15:07 13.20433 122.37144 39014 ft 473 kts 139°
2026-05-01 15:07 13.15471 122.41550 39015 ft 473 kts 139°
2026-05-01 15:08 13.10535 122.45932 39015 ft 473 kts 139°
2026-05-01 15:08 13.05578 122.50330 39015 ft 473 kts 139°
2026-05-01 15:09 13.00608 122.54737 39015 ft 473 kts 139°
2026-05-01 15:09 12.95629 122.59150 39015 ft 473 kts 139°
2026-05-01 15:10 12.90672 122.63540 39015 ft 473 kts 139°
2026-05-01 15:10 12.83197 122.70155 39015 ft 473 kts 139°
2026-05-01 15:11 12.75677 122.76806 39015 ft 473 kts 139°
2026-05-01 15:12 12.70711 122.81194 39015 ft 473 kts 139°
2026-05-01 15:12 12.63258 122.87775 39015 ft 473 kts 139°
2026-05-01 15:14 12.50847 122.98726 39015 ft 473 kts 139°
2026-05-01 15:14 12.43393 123.05295 39015 ft 473 kts 139°
2026-05-01 15:15 12.33428 123.14069 39015 ft 473 kts 139°
2026-05-01 15:16 12.23498 123.22804 39015 ft 473 kts 139°
2026-05-01 15:18 12.11091 123.33704 39015 ft 473 kts 139°
2026-05-01 15:19 12.01123 123.42451 39015 ft 473 kts 139°
2026-05-01 15:19 11.93686 123.48973 39015 ft 473 kts 139°
2026-05-01 15:20 11.86155 123.55570 39015 ft 473 kts 139°
2026-05-01 15:21 11.81167 123.59937 39015 ft 473 kts 139°
2026-05-01 15:21 11.76192 123.64289 39015 ft 473 kts 139°
2026-05-01 15:22 11.68666 123.70873 39015 ft 473 kts 139°
2026-05-01 15:22 11.63679 123.75231 39015 ft 473 kts 139°
2026-05-01 15:23 11.58708 123.79575 39015 ft 473 kts 139°
2026-05-01 15:23 11.53729 123.83923 39015 ft 473 kts 139°
2026-05-01 15:24 11.48746 123.88271 39015 ft 473 kts 139°
2026-05-01 15:24 11.43741 123.92637 39015 ft 473 kts 139°
2026-05-01 15:25 11.38735 123.96922 39012 ft 473 kts 144°
2026-05-01 15:25 11.33188 124.00507 39016 ft 473 kts 149°
2026-05-01 15:26 11.27571 124.03966 39015 ft 473 kts 149°
2026-05-01 15:26 11.21987 124.07436 39015 ft 473 kts 148°
2026-05-01 15:27 11.16403 124.10925 39015 ft 473 kts 148°
2026-05-01 15:28 10.41500 124.57735 39029 ft 473 kts 148°
2026-05-01 15:28 10.35994 124.61163 39018 ft 473 kts 148°
2026-05-01 15:29 10.27598 124.66389 39015 ft 473 kts 148°
2026-05-01 15:30 10.16385 124.73365 39015 ft 473 kts 148°
2026-05-01 15:31 9.99628 124.83781 39015 ft 473 kts 148°
2026-05-01 15:32 9.88431 124.90733 39015 ft 473 kts 148°
2026-05-01 15:34 9.71732 125.01092 38530 ft 470 kts 148°